| time (UTC) | temp C | wind direction | speed KPH | gust KPH | rain 1hr cm | rain 24hr cm | rain mn cm | humidity % | barometer mb |
| 20260906095529 | 15 | 0 | 0.0 | 0.0 | 0.00 | 0.08 | 0.03 | 97 | 1014.9 |
| 20260906095027 | 15 | 0 | 0.0 | 0.0 | 0.00 | 0.08 | 0.03 | 97 | 1014.8 |
| 20260906094548 | 15 | 0 | 0.0 | 0.0 | 0.00 | 0.08 | 0.03 | 97 | 1014.7 |
| 20260906094028 | 15 | 0 | 0.0 | 0.0 | 0.00 | 0.08 | 0.03 | 97 | 1014.8 |
| 20260906093528 | 15 | 0 | 0.0 | 0.0 | 0.00 | 0.08 | 0.03 | 97 | 1014.7 |
| 20260906093045 | 15 | 0 | 0.0 | 0.0 | 0.00 | 0.08 | 0.03 | 97 | 1014.7 |
| 20260906092531 | 15 | 0 | 0.0 | 0.0 | 0.00 | 0.08 | 0.03 | 97 | 1014.7 |
| 20260906092030 | 15 | 0 | 0.0 | 0.0 | 0.00 | 0.08 | 0.03 | 97 | 1014.6 |
| 20260906091551 | 15 | 0 | 0.0 | 1.6 | 0.00 | 0.08 | 0.03 | 97 | 1014.5 |
| 20260906091029 | 15 | 0 | 0.0 | 1.6 | 0.00 | 0.08 | 0.03 | 97 | 1014.5 |
| 20260906090526 | 15 | 0 | 0.0 | 0.0 | 0.00 | 0.08 | 0.03 | 97 | 1014.5 |
| 20260906090049 | 15 | 0 | 0.0 | 0.0 | 0.00 | 0.08 | 0.03 | 97 | 1014.4 |
| 20260906085531 | 15 | 0 | 0.0 | 0.0 | 0.00 | 0.08 | 0.03 | 97 | 1014.5 |
| 20260906085029 | 15 | 0 | 0.0 | 0.0 | 0.00 | 0.08 | 0.03 | 96 | 1014.6 |
| 20260906084554 | 15 | 0 | 0.0 | 1.6 | 0.00 | 0.08 | 0.03 | 97 | 1014.7 |
| 20260906084029 | 15 | 0 | 0.0 | 1.6 | 0.00 | 0.08 | 0.03 | 97 | 1014.7 |
| 20260906083531 | 15 | 0 | 0.0 | 1.6 | 0.00 | 0.08 | 0.03 | 97 | 1014.6 |
| 20260906083048 | 15 | 0 | 0.0 | 1.6 | 0.00 | 0.08 | 0.03 | 96 | 1014.5 |
| 20260906082531 | 15 | 0 | 0.0 | 1.6 | 0.00 | 0.08 | 0.03 | 96 | 1014.5 |
| 20260906082030 | 15 | 343 | 0.0 | 1.6 | 0.00 | 0.08 | 0.03 | 96 | 1014.4 |
| 20260906081550 | 15 | 0 | 0.0 | 0.0 | 0.00 | 0.08 | 0.03 | 96 | 1014.1 |
| 20260906081029 | 15 | 0 | 0.0 | 0.0 | 0.00 | 0.08 | 0.03 | 96 | 1014.5 |
| 20260906080529 | 15 | 0 | 0.0 | 1.6 | 0.00 | 0.08 | 0.03 | 96 | 1014.6 |
| 20260906080052 | 15 | 0 | 0.0 | 1.6 | 0.00 | 0.08 | 0.03 | 96 | 1014.6 |
| 20260906075529 | 15 | 299 | 0.0 | 1.6 | 0.00 | 0.08 | 0.03 | 96 | 1014.5 |
| 20260906075030 | 15 | 0 | 0.0 | 1.6 | 0.00 | 0.08 | 0.03 | 96 | 1014.4 |
| 20260906074604 | 15 | 0 | 0.0 | 0.0 | 0.00 | 0.08 | 0.03 | 96 | 1014.4 |
| 20260906074028 | 15 | 0 | 0.0 | 0.0 | 0.00 | 0.08 | 0.03 | 96 | 1014.4 |
| 20260906073530 | 15 | 0 | 0.0 | 1.6 | 0.00 | 0.08 | 0.03 | 96 | 1014.4 |
| 20260906073045 | 15 | 0 | 0.0 | 1.6 | 0.00 | 0.08 | 0.03 | 96 | 1014.5 |
| 20260906072529 | 15 | 0 | 0.0 | 1.6 | 0.00 | 0.08 | 0.03 | 96 | 1014.5 |
| 20260906072031 | 15 | 0 | 0.0 | 1.6 | 0.00 | 0.08 | 0.03 | 96 | 1014.5 |
| 20260906071544 | 15 | 0 | 0.0 | 1.6 | 0.00 | 0.08 | 0.03 | 96 | 1014.3 |
| 20260906071031 | 15 | 0 | 0.0 | 0.0 | 0.00 | 0.08 | 0.03 | 96 | 1014.5 |
| 20260906070531 | 15 | 0 | 0.0 | 0.0 | 0.00 | 0.08 | 0.03 | 96 | 1014.4 |
| 20260906070141 | 15 | 0 | 0.0 | 1.6 | 0.00 | 0.08 | 0.03 | 96 | 1014.5 |
| 20260906070052 | 15 | 0 | 0.0 | 1.6 | 0.00 | 0.08 | 0.03 | 96 | 1014.5 |
| 20260906065529 | 15 | 0 | 0.0 | 1.6 | 0.00 | 0.08 | 0.03 | 96 | 1014.5 |
| 20260906065031 | 15 | 0 | 0.0 | 1.6 | 0.00 | 0.08 | 0.03 | 96 | 1014.5 |
| 20260906064546 | 15 | 0 | 0.0 | 1.6 | 0.03 | 0.08 | 0.03 | 96 | 1014.4 |
| 20260906064029 | 15 | 0 | 0.0 | 1.6 | 0.03 | 0.08 | 0.03 | 96 | 1014.5 |
| 20260906063529 | 15 | 0 | 0.0 | 1.6 | 0.03 | 0.08 | 0.03 | 95 | 1014.4 |
| 20260906063046 | 15 | 0 | 0.0 | 1.6 | 0.03 | 0.08 | 0.03 | 95 | 1014.6 |
| 20260906062529 | 15 | 0 | 0.0 | 0.0 | 0.03 | 0.08 | 0.03 | 95 | 1014.5 |
| 20260906062032 | 15 | 0 | 0.0 | 0.0 | 0.03 | 0.08 | 0.03 | 95 | 1014.5 |
| 20260906061550 | 15 | 0 | 0.0 | 4.8 | 0.03 | 0.08 | 0.03 | 95 | 1014.7 |
| 20260906061029 | 15 | 0 | 0.0 | 4.8 | 0.03 | 0.08 | 0.03 | 95 | 1014.6 |
| 20260906060527 | 15 | 356 | 0.0 | 4.8 | 0.03 | 0.08 | 0.03 | 95 | 1014.7 |
| 20260906060052 | 15 | 0 | 0.0 | 0.0 | 0.03 | 0.08 | 0.03 | 95 | 1014.7 |
| 20260906055530 | 15 | 0 | 0.0 | 0.0 | 0.03 | 0.08 | 0.03 | 95 | 1014.6 |
| 20260906055027 | 15 | 0 | 0.0 | 0.0 | 0.00 | 0.05 | 0.00 | 95 | 1014.8 |
| 20260906054547 | 15 | 0 | 0.0 | 0.0 | 0.00 | 0.05 | 0.00 | 95 | 1014.7 |
| 20260906054030 | 15 | 0 | 0.0 | 0.0 | 0.00 | 0.05 | 0.00 | 95 | 1014.7 |
| 20260906053530 | 15 | 0 | 0.0 | 0.0 | 0.00 | 0.05 | 0.00 | 95 | 1014.8 |
| 20260906053054 | 15 | 0 | 0.0 | 0.0 | 0.00 | 0.05 | 0.00 | 95 | 1014.9 |
| 20260906052529 | 15 | 0 | 0.0 | 0.0 | 0.00 | 0.05 | 0.00 | 94 | 1014.6 |
| 20260906052030 | 15 | 0 | 0.0 | 0.0 | 0.00 | 0.05 | 0.00 | 94 | 1014.7 |
| 20260906051601 | 15 | 0 | 0.0 | 0.0 | 0.00 | 0.05 | 0.00 | 94 | 1014.7 |
| 20260906051029 | 15 | 0 | 0.0 | 0.0 | 0.00 | 0.05 | 0.00 | 93 | 1014.8 |
| 20260906050527 | 16 | 0 | 0.0 | 0.0 | 0.00 | 0.05 | 0.00 | 93 | 1014.7 |
| 20260906050055 | 16 | 0 | 0.0 | 0.0 | 0.00 | 0.05 | 0.00 | 93 | 1014.7 |
| 20260906045530 | 16 | 0 | 0.0 | 0.0 | 0.00 | 0.05 | 0.00 | 93 | 1014.7 |
| 20260906045043 | 16 | 0 | 0.0 | 0.0 | 0.00 | 0.05 | 0.00 | 92 | 1014.6 |
| 20260906044545 | 16 | 0 | 0.0 | 0.0 | 0.00 | 0.05 | 0.00 | 92 | 1014.6 |
| 20260906044031 | 16 | 0 | 0.0 | 0.0 | 0.00 | 0.05 | 0.00 | 93 | 1014.5 |
| 20260906043533 | 16 | 0 | 0.0 | 0.0 | 0.00 | 0.05 | 0.00 | 92 | 1014.4 |
| 20260906043041 | 16 | 0 | 0.0 | 0.0 | 0.00 | 0.05 | 0.00 | 93 | 1014.5 |
| 20260906042527 | 16 | 194 | 0.0 | 0.0 | 0.00 | 0.05 | 0.00 | 93 | 1014.5 |
| 20260906042029 | 16 | 193 | 0.0 | 3.2 | 0.00 | 0.05 | 0.00 | 93 | 1014.4 |
| 20260906041552 | 16 | 0 | 0.0 | 3.2 | 0.00 | 0.05 | 0.00 | 94 | 1014.4 |
| 20260906041026 | 16 | 212 | 0.0 | 3.2 | 0.00 | 0.05 | 0.00 | 94 | 1014.4 |
| 20260906040530 | 16 | 0 | 0.0 | 0.0 | 0.00 | 0.05 | 0.00 | 95 | 1014.5 |
| 20260906040050 | 16 | 0 | 0.0 | 0.0 | 0.00 | 0.05 | 0.00 | 95 | 1014.5 |
| 20260906035530 | 16 | 0 | 0.0 | 0.0 | 0.00 | 0.05 | 0.05 | 95 | 1014.4 |
| 20260906035029 | 16 | 0 | 0.0 | 0.0 | 0.00 | 0.05 | 0.05 | 95 | 1014.4 |
| 20260906034545 | 16 | 0 | 0.0 | 0.0 | 0.00 | 0.05 | 0.05 | 94 | 1014.2 |
| 20260906034029 | 16 | 0 | 0.0 | 0.0 | 0.00 | 0.05 | 0.05 | 94 | 1014.3 |
| 20260906033527 | 16 | 0 | 0.0 | 0.0 | 0.00 | 0.05 | 0.05 | 94 | 1014.3 |
| 20260906033053 | 16 | 0 | 0.0 | 0.0 | 0.03 | 0.05 | 0.05 | 94 | 1014.4 |
| 20260906032530 | 16 | 0 | 0.0 | 1.6 | 0.03 | 0.05 | 0.05 | 94 | 1014.0 |
| 20260906032030 | 16 | 0 | 0.0 | 1.6 | 0.03 | 0.05 | 0.05 | 93 | 1013.9 |
| 20260906031559 | 16 | 0 | 0.0 | 1.6 | 0.03 | 0.05 | 0.05 | 93 | 1014.0 |
| 20260906031029 | 16 | 0 | 0.0 | 1.6 | 0.03 | 0.05 | 0.05 | 93 | 1014.1 |
| 20260906030529 | 16 | 0 | 0.0 | 0.0 | 0.03 | 0.05 | 0.05 | 93 | 1014.0 |
| 20260906030048 | 17 | 0 | 0.0 | 1.6 | 0.03 | 0.05 | 0.05 | 93 | 1013.7 |
| 20260906025529 | 17 | 0 | 0.0 | 1.6 | 0.03 | 0.05 | 0.05 | 93 | 1013.8 |
| 20260906025032 | 17 | 206 | 0.0 | 1.6 | 0.03 | 0.05 | 0.05 | 92 | 1013.6 |
| 20260906024557 | 17 | 0 | 0.0 | 0.0 | 0.03 | 0.05 | 0.05 | 91 | 1013.6 |
| 20260906024030 | 17 | 0 | 0.0 | 4.8 | 0.03 | 0.05 | 0.05 | 91 | 1013.6 |
| 20260906023529 | 17 | 0 | 0.0 | 4.8 | 0.03 | 0.05 | 0.05 | 90 | 1013.6 |
| 20260906023044 | 18 | 158 | 1.6 | 4.8 | 0.00 | 0.03 | 0.03 | 89 | 1013.7 |
| 20260906022529 | 18 | 0 | 0.0 | 0.0 | 0.00 | 0.03 | 0.03 | 90 | 1013.7 |
| 20260906022030 | 18 | 0 | 0.0 | 1.6 | 0.00 | 0.03 | 0.03 | 91 | 1013.6 |
| 20260906021551 | 18 | 0 | 0.0 | 1.6 | 0.00 | 0.03 | 0.03 | 91 | 1013.5 |
| 20260906021030 | 18 | 0 | 0.0 | 1.6 | 0.00 | 0.03 | 0.03 | 92 | 1013.5 |
| 20260906020529 | 18 | 0 | 0.0 | 1.6 | 0.00 | 0.03 | 0.03 | 92 | 1013.5 |
| 20260906020056 | 18 | 0 | 0.0 | 1.6 | 0.00 | 0.03 | 0.03 | 91 | 1013.5 |
| 20260906015528 | 18 | 0 | 0.0 | 1.6 | 0.00 | 0.03 | 0.03 | 91 | 1013.3 |
| 20260906015030 | 18 | 278 | 0.0 | 1.6 | 0.00 | 0.03 | 0.03 | 92 | 1013.3 |
| 20260906014554 | 18 | 0 | 0.0 | 0.0 | 0.00 | 0.03 | 0.03 | 92 | 1013.3 |
| 20260906014028 | 18 | 0 | 0.0 | 3.2 | 0.00 | 0.03 | 0.03 | 92 | 1013.2 |
| 20260906013529 | 18 | 0 | 0.0 | 3.2 | 0.00 | 0.03 | 0.03 | 91 | 1013.4 |
| 20260906013054 | 18 | 0 | 0.0 | 1.6 | 0.00 | 0.03 | 0.03 | 92 | 1013.4 |
| 20260906012531 | 18 | 0 | 0.0 | 1.6 | 0.00 | 0.03 | 0.03 | 92 | 1013.3 |
| 20260906012028 | 18 | 0 | 0.0 | 1.6 | 0.00 | 0.03 | 0.03 | 92 | 1013.3 |
| 20260906011543 | 18 | 0 | 0.0 | 1.6 | 0.00 | 0.03 | 0.03 | 92 | 1013.2 |
| 20260906011029 | 18 | 0 | 0.0 | 1.6 | 0.00 | 0.03 | 0.03 | 92 | 1013.2 |
| 20260906010528 | 18 | 0 | 0.0 | 0.0 | 0.00 | 0.03 | 0.03 | 93 | 1013.2 |
| 20260906010055 | 17 | 0 | 0.0 | 0.0 | 0.00 | 0.03 | 0.03 | 92 | 1013.1 |
| 20260906005529 | 17 | 0 | 0.0 | 0.0 | 0.00 | 0.03 | 0.03 | 92 | 1013.1 |
| 20260906005029 | 18 | 0 | 0.0 | 0.0 | 0.00 | 0.03 | 0.03 | 92 | 1013.0 |
| 20260906004550 | 18 | 0 | 0.0 | 0.0 | 0.00 | 0.03 | 0.03 | 92 | 1012.9 |
| 20260906004029 | 18 | 0 | 0.0 | 0.0 | 0.00 | 0.03 | 0.03 | 91 | 1012.9 |
| 20260906003530 | 18 | 0 | 0.0 | 0.0 | 0.00 | 0.03 | 0.03 | 91 | 1012.8 |
| 20260906003042 | 18 | 0 | 0.0 | 0.0 | 0.00 | 0.03 | 0.03 | 91 | 1012.8 |
| 20260906002529 | 18 | 0 | 0.0 | 0.0 | 0.00 | 0.03 | 0.03 | 91 | 1012.5 |
| 20260906002028 | 18 | 0 | 0.0 | 0.0 | 0.00 | 0.03 | 0.03 | 91 | 1012.7 |
| 20260906001552 | 18 | 0 | 0.0 | 0.0 | 0.00 | 0.03 | 0.03 | 91 | 1012.6 |
| 20260906001029 | 18 | 0 | 0.0 | 0.0 | 0.00 | 0.03 | 0.03 | 90 | 1012.5 |
| 20260906000529 | 18 | 0 | 0.0 | 1.6 | 0.00 | 0.03 | 0.03 | 90 | 1012.4 |
| 20260906000053 | 18 | 0 | 0.0 | 1.6 | 0.00 | 0.03 | 0.03 | 89 | 1012.2 |
| 20260905235527 | 18 | 0 | 0.0 | 1.6 | 0.00 | 0.03 | 0.03 | 88 | 1012.4 |
| 20260905235030 | 18 | 0 | 0.0 | 1.6 | 0.00 | 0.03 | 0.03 | 88 | 1012.2 |
| 20260905234547 | 18 | 0 | 0.0 | 1.6 | 0.00 | 0.03 | 0.03 | 87 | 1012.1 |
| 20260905234029 | 18 | 0 | 0.0 | 0.0 | 0.00 | 0.03 | 0.03 | 87 | 1012.0 |
| 20260905233529 | 18 | 0 | 0.0 | 0.0 | 0.00 | 0.03 | 0.03 | 86 | 1011.9 |
| 20260905233047 | 19 | 0 | 0.0 | 0.0 | 0.00 | 0.03 | 0.03 | 85 | 1011.9 |
| 20260905232528 | 19 | 0 | 0.0 | 0.0 | 0.00 | 0.03 | 0.03 | 85 | 1011.8 |
| 20260905232030 | 19 | 0 | 0.0 | 0.0 | 0.00 | 0.03 | 0.03 | 85 | 1011.8 |
| 20260905231546 | 20 | 0 | 0.0 | 0.0 | 0.00 | 0.03 | 0.03 | 85 | 1011.8 |
| 20260905231028 | 20 | 0 | 0.0 | 0.0 | 0.00 | 0.03 | 0.03 | 85 | 1011.8 |
| 20260905230527 | 20 | 0 | 0.0 | 1.6 | 0.00 | 0.03 | 0.03 | 84 | 1011.8 |
| 20260905230055 | 20 | 0 | 0.0 | 1.6 | 0.00 | 0.03 | 0.03 | 84 | 1011.8 |
| 20260905225527 | 20 | 0 | 0.0 | 1.6 | 0.00 | 0.03 | 0.03 | 82 | 1011.7 |
| 20260905225027 | 20 | 0 | 0.0 | 0.0 | 0.00 | 0.03 | 0.03 | 85 | 1011.8 |
| 20260905224601 | 20 | 0 | 0.0 | 0.0 | 0.00 | 0.03 | 0.03 | 85 | 1011.7 |
| 20260905224028 | 21 | 0 | 0.0 | 0.0 | 0.00 | 0.03 | 0.03 | 84 | 1011.8 |
| 20260905223531 | 21 | 0 | 0.0 | 0.0 | 0.00 | 0.03 | 0.03 | 83 | 1011.7 |
| 20260905223047 | 21 | 0 | 0.0 | 0.0 | 0.00 | 0.03 | 0.03 | 82 | 1011.8 |
| 20260905222529 | 21 | 0 | 0.0 | 1.6 | 0.00 | 0.03 | 0.03 | 82 | 1011.6 |
| 20260905222027 | 21 | 0 | 0.0 | 1.6 | 0.00 | 0.03 | 0.03 | 81 | 1011.4 |
| 20260905221601 | 22 | 0 | 0.0 | 3.2 | 0.00 | 0.03 | 0.03 | 80 | 1011.3 |
| 20260905221033 | 22 | 5 | 1.6 | 3.2 | 0.00 | 0.03 | 0.03 | 75 | 1011.4 |
| 20260905220529 | 22 | 342 | 0.0 | 1.6 | 0.00 | 0.03 | 0.03 | 75 | 1011.3 |
| 20260905220104 | 22 | 325 | 0.0 | 1.6 | 0.00 | 0.03 | 0.03 | 75 | 1011.2 |
| 20260905215529 | 22 | 0 | 0.0 | 1.6 | 0.00 | 0.03 | 0.03 | 74 | 1011.2 |
| 20260905215028 | 22 | 0 | 0.0 | 4.8 | 0.00 | 0.03 | 0.03 | 73 | 1011.2 |
| 20260905214547 | 22 | 346 | 1.6 | 6.4 | 0.00 | 0.03 | 0.03 | 71 | 1011.1 |
| 20260905214030 | 23 | 289 | 1.6 | 6.4 | 0.00 | 0.03 | 0.03 | 72 | 1011.2 |
| 20260905213531 | 23 | 272 | 0.0 | 4.8 | 0.00 | 0.03 | 0.03 | 73 | 1011.0 |
| 20260905213041 | 22 | 0 | 0.0 | 1.6 | 0.00 | 0.03 | 0.03 | 79 | 1011.2 |
| 20260905212532 | 22 | 299 | 0.0 | 1.6 | 0.00 | 0.03 | 0.03 | 78 | 1011.1 |
| 20260905212030 | 22 | 0 | 0.0 | 3.2 | 0.00 | 0.03 | 0.03 | 76 | 1011.1 |
| 20260905211612 | 22 | 312 | 0.0 | 4.8 | 0.00 | 0.03 | 0.03 | 75 | 1010.9 |
| 20260905211029 | 23 | 292 | 0.0 | 4.8 | 0.00 | 0.03 | 0.03 | 74 | 1010.8 |
| 20260905210529 | 23 | 329 | 1.6 | 4.8 | 0.00 | 0.03 | 0.03 | 71 | 1010.7 |
| 20260905210054 | 23 | 0 | 0.0 | 8.0 | 0.00 | 0.03 | 0.03 | 72 | 1010.7 |
| 20260905205527 | 23 | 0 | 1.6 | 8.0 | 0.00 | 0.03 | 0.03 | 69 | 1010.8 |
| 20260905205029 | 23 | 273 | 1.6 | 6.4 | 0.00 | 0.03 | 0.03 | 68 | 1010.7 |
| 20260905204557 | 23 | 295 | 1.6 | 9.7 | 0.00 | 0.03 | 0.03 | 67 | 1010.8 |
| 20260905204029 | 24 | 104 | 4.8 | 9.7 | 0.00 | 0.03 | 0.03 | 67 | 1010.8 |
| 20260905203529 | 25 | 285 | 3.2 | 11.3 | 0.00 | 0.03 | 0.03 | 66 | 1010.7 |
| 20260905203110 | 25 | 354 | 3.2 | 11.3 | 0.00 | 0.03 | 0.03 | 64 | 1010.6 |
| 20260905202531 | 25 | 313 | 3.2 | 9.7 | 0.00 | 0.03 | 0.03 | 64 | 1010.5 |
| 20260905202029 | 25 | 333 | 3.2 | 6.4 | 0.00 | 0.03 | 0.03 | 67 | 1010.7 |
| 20260905201546 | 25 | 274 | 1.6 | 6.4 | 0.00 | 0.03 | 0.03 | 65 | 1010.6 |
| 20260905201029 | 24 | 205 | 0.0 | 3.2 | 0.00 | 0.03 | 0.03 | 68 | 1010.5 |
| 20260905200531 | 23 | 243 | 0.0 | 3.2 | 0.00 | 0.03 | 0.03 | 71 | 1010.5 |
| 20260905200053 | 23 | 0 | 0.0 | 1.6 | 0.00 | 0.03 | 0.03 | 74 | 1010.5 |
| 20260905195530 | 23 | 23 | 0.0 | 1.6 | 0.00 | 0.03 | 0.03 | 73 | 1010.5 |
| 20260905195031 | 23 | 0 | 0.0 | 9.7 | 0.00 | 0.03 | 0.03 | 74 | 1010.5 |
| 20260905194549 | 23 | 0 | 0.0 | 9.7 | 0.00 | 0.03 | 0.03 | 68 | 1010.5 |
| 20260905194029 | 23 | 47 | 3.2 | 9.7 | 0.00 | 0.03 | 0.03 | 67 | 1010.6 |
| 20260905193529 | 23 | 299 | 3.2 | 9.7 | 0.00 | 0.03 | 0.03 | 67 | 1010.7 |
| 20260905193044 | 23 | 134 | 1.6 | 9.7 | 0.00 | 0.03 | 0.03 | 68 | 1010.5 |
| 20260905192528 | 23 | 102 | 4.8 | 9.7 | 0.00 | 0.03 | 0.03 | 68 | 1010.6 |
| 20260905192028 | 23 | 280 | 3.2 | 8.0 | 0.00 | 0.03 | 0.03 | 70 | 1010.4 |
| 20260905191545 | 23 | 334 | 3.2 | 8.0 | 0.00 | 0.03 | 0.03 | 68 | 1010.3 |
| 20260905191029 | 23 | 349 | 1.6 | 8.0 | 0.00 | 0.03 | 0.03 | 70 | 1010.6 |
| 20260905190529 | 23 | 322 | 1.6 | 9.7 | 0.00 | 0.03 | 0.03 | 70 | 1010.5 |
| 20260905190049 | 23 | 333 | 1.6 | 9.7 | 0.00 | 0.03 | 0.03 | 69 | 1010.6 |
| 20260905185528 | 23 | 299 | 1.6 | 9.7 | 0.00 | 0.03 | 0.03 | 69 | 1010.5 |
| 20260905185028 | 23 | 295 | 3.2 | 8.0 | 0.00 | 0.03 | 0.03 | 67 | 1010.4 |
| 20260905184550 | 23 | 308 | 3.2 | 8.0 | 0.00 | 0.03 | 0.03 | 65 | 1010.4 |
| 20260905184029 | 23 | 49 | 3.2 | 8.0 | 0.00 | 0.03 | 0.03 | 67 | 1010.6 |
| 20260905183528 | 23 | 17 | 3.2 | 8.0 | 0.00 | 0.03 | 0.03 | 69 | 1010.7 |
| 20260905183045 | 23 | 296 | 1.6 | 8.0 | 0.00 | 0.03 | 0.03 | 70 | 1010.6 |
| 20260905182528 | 23 | 275 | 0.0 | 6.4 | 0.00 | 0.03 | 0.03 | 70 | 1010.5 |
| 20260905182029 | 23 | 319 | 0.0 | 6.4 | 0.00 | 0.03 | 0.03 | 69 | 1010.6 |
| 20260905181601 | 23 | 15 | 1.6 | 6.4 | 0.00 | 0.03 | 0.03 | 69 | 1010.5 |
| 20260905181027 | 23 | 11 | 3.2 | 6.4 | 0.00 | 0.03 | 0.03 | 68 | 1010.5 |
| 20260905180529 | 23 | 290 | 1.6 | 6.4 | 0.00 | 0.03 | 0.03 | 71 | 1010.8 |
| 20260905180051 | 23 | 279 | 1.6 | 6.4 | 0.00 | 0.03 | 0.03 | 68 | 1010.7 |
| 20260905175530 | 23 | 0 | 1.6 | 6.4 | 0.00 | 0.03 | 0.03 | 71 | 1010.6 |
| 20260905175029 | 23 | 252 | 1.6 | 14.5 | 0.00 | 0.03 | 0.03 | 68 | 1010.6 |
| 20260905174551 | 23 | 0 | 1.6 | 14.5 | 0.00 | 0.03 | 0.03 | 69 | 1010.7 |
| 20260905174030 | 23 | 160 | 4.8 | 14.5 | 0.00 | 0.03 | 0.03 | 65 | 1010.7 |
| 20260905173529 | 23 | 343 | 3.2 | 9.7 | 0.00 | 0.03 | 0.03 | 66 | 1010.7 |
| 20260905173045 | 23 | 278 | 1.6 | 9.7 | 0.00 | 0.03 | 0.03 | 69 | 1010.7 |
| 20260905172529 | 23 | 257 | 1.6 | 11.3 | 0.00 | 0.03 | 0.03 | 67 | 1010.8 |
| 20260905172029 | 23 | 32 | 1.6 | 14.5 | 0.00 | 0.03 | 0.03 | 68 | 1010.7 |
| 20260905171552 | 23 | 288 | 6.4 | 14.5 | 0.00 | 0.03 | 0.03 | 66 | 1010.7 |
| 20260905171030 | 23 | 240 | 1.6 | 6.4 | 0.00 | 0.03 | 0.03 | 69 | 1010.7 |
| 20260905170527 | 23 | 280 | 3.2 | 9.7 | 0.00 | 0.03 | 0.03 | 68 | 1010.8 |
| 20260905170053 | 23 | 345 | 3.2 | 11.3 | 0.00 | 0.03 | 0.03 | 67 | 1010.8 |
| 20260905165533 | 23 | 247 | 4.8 | 11.3 | 0.00 | 0.03 | 0.03 | 64 | 1010.6 |
| 20260905165029 | 23 | 288 | 3.2 | 11.3 | 0.00 | 0.03 | 0.03 | 66 | 1010.7 |
| 20260905164542 | 23 | 170 | 3.2 | 11.3 | 0.00 | 0.03 | 0.03 | 66 | 1010.8 |
| 20260905164029 | 23 | 154 | 4.8 | 14.5 | 0.00 | 0.03 | 0.03 | 70 | 1010.7 |
| 20260905163528 | 23 | 290 | 6.4 | 14.5 | 0.00 | 0.03 | 0.03 | 66 | 1010.7 |
| 20260905163043 | 24 | 272 | 3.2 | 9.7 | 0.00 | 0.03 | 0.03 | 67 | 1010.7 |
| 20260905162527 | 23 | 271 | 1.6 | 11.3 | 0.00 | 0.03 | 0.03 | 70 | 1010.6 |
| 20260905162028 | 23 | 62 | 3.2 | 14.5 | 0.00 | 0.03 | 0.03 | 68 | 1010.8 |
| 20260905161541 | 23 | 272 | 3.2 | 14.5 | 0.00 | 0.03 | 0.03 | 68 | 1010.7 |
| 20260905161030 | 23 | 278 | 4.8 | 14.5 | 0.00 | 0.03 | 0.03 | 66 | 1010.8 |
| 20260905160526 | 23 | 160 | 3.2 | 11.3 | 0.00 | 0.03 | 0.03 | 67 | 1010.8 |
| 20260905160115 | 23 | 307 | 3.2 | 11.3 | 0.00 | 0.03 | 0.03 | 69 | 1010.8 |
| 20260905155529 | 23 | 323 | 1.6 | 11.3 | 0.00 | 0.03 | 0.03 | 68 | 1011.1 |
| 20260905155028 | 23 | 101 | 3.2 | 16.1 | 0.00 | 0.03 | 0.03 | 70 | 1011.1 |
| 20260905154559 | 22 | 110 | 3.2 | 16.1 | 0.00 | 0.03 | 0.03 | 70 | 1011.1 |
| 20260905154029 | 22 | 224 | 3.2 | 16.1 | 0.00 | 0.03 | 0.03 | 73 | 1011.2 |
| 20260905153529 | 22 | 286 | 3.2 | 12.9 | 0.00 | 0.03 | 0.03 | 76 | 1011.2 |
| 20260905153053 | 22 | 319 | 4.8 | 12.9 | 0.00 | 0.03 | 0.03 | 72 | 1011.1 |
| 20260905152526 | 22 | 271 | 3.2 | 14.5 | 0.00 | 0.03 | 0.03 | 73 | 1011.2 |
| 20260905152025 | 22 | 314 | 3.2 | 14.5 | 0.00 | 0.03 | 0.03 | 73 | 1011.2 |
| 20260905151547 | 22 | 305 | 3.2 | 14.5 | 0.00 | 0.03 | 0.03 | 73 | 1011.3 |
| 20260905151029 | 22 | 112 | 1.6 | 9.7 | 0.00 | 0.03 | 0.03 | 73 | 1011.2 |
| 20260905150529 | 22 | 302 | 3.2 | 9.7 | 0.00 | 0.03 | 0.03 | 73 | 1011.1 |
| 20260905150046 | 22 | 16 | 3.2 | 12.9 | 0.03 | 0.03 | 0.03 | 74 | 1011.2 |
| 20260905145529 | 22 | 348 | 1.6 | 12.9 | 0.03 | 0.03 | 0.03 | 75 | 1011.2 |
| 20260905145029 | 22 | 11 | 1.6 | 11.3 | 0.03 | 0.03 | 0.03 | 76 | 1011.0 |
| 20260905144552 | 22 | 37 | 3.2 | 11.3 | 0.03 | 0.03 | 0.03 | 76 | 1011.2 |
| 20260905144032 | 21 | 285 | 4.8 | 14.5 | 0.03 | 0.03 | 0.03 | 74 | 1011.3 |
| 20260905143531 | 21 | 131 | 3.2 | 19.3 | 0.03 | 0.03 | 0.03 | 75 | 1011.2 |
| 20260905143055 | 21 | 297 | 6.4 | 19.3 | 0.03 | 0.03 | 0.03 | 75 | 1011.3 |
| 20260905142530 | 21 | 286 | 6.4 | 12.9 | 0.03 | 0.03 | 0.03 | 75 | 1011.4 |
| 20260905142030 | 21 | 275 | 6.4 | 12.9 | 0.03 | 0.03 | 0.03 | 76 | 1011.4 |
| 20260905141551 | 21 | 247 | 4.8 | 12.9 | 0.03 | 0.03 | 0.03 | 77 | 1011.3 |
| 20260905141030 | 20 | 329 | 4.8 | 14.5 | 0.03 | 0.03 | 0.03 | 77 | 1011.4 |
| 20260905140532 | 20 | 286 | 4.8 | 14.5 | 0.03 | 0.03 | 0.03 | 77 | 1011.5 |
| 20260905140052 | 20 | 162 | 3.2 | 11.3 | 0.00 | 0.00 | 0.00 | 81 | 1011.3 |
| 20260905135528 | 20 | 203 | 3.2 | 11.3 | 0.00 | 0.00 | 0.00 | 81 | 1011.3 |
| 20260905135027 | 20 | 269 | 3.2 | 9.7 | 0.00 | 0.00 | 0.00 | 84 | 1011.4 |
| 20260905134549 | 19 | 56 | 3.2 | 8.0 | 0.00 | 0.00 | 0.00 | 85 | 1011.5 |
| 20260905134030 | 19 | 241 | 1.6 | 8.0 | 0.00 | 0.00 | 0.00 | 87 | 1011.5 |
| 20260905133529 | 18 | 276 | 1.6 | 8.0 | 0.00 | 0.00 | 0.00 | 89 | 1011.3 |
| 20260905133046 | 18 | 347 | 1.6 | 6.4 | 0.00 | 0.00 | 0.00 | 92 | 1011.5 |
| 20260905132532 | 18 | 309 | 0.0 | 6.4 | 0.00 | 0.00 | 0.00 | 94 | 1011.3 |
| 20260905132030 | 17 | 0 | 0.0 | 1.6 | 0.00 | 0.00 | 0.00 | 98 | 1011.4 |
| 20260905131600 | 17 | 356 | 0.0 | 1.6 | 0.00 | 0.00 | 0.00 | 99 | 1011.3 |
| 20260905131029 | 17 | 358 | 0.0 | 1.6 | 0.00 | 0.00 | 0.00 | 99 | 1011.5 |
| 20260905130529 | 16 | 347 | 0.0 | 1.6 | 0.00 | 0.00 | 0.00 | 99 | 1011.5 |
| 20260905130051 | 16 | 0 | 0.0 | 0.0 | 0.00 | 0.00 | 0.00 | 99 | 1011.6 |
| 20260905125528 | 16 | 0 | 0.0 | 0.0 | 0.00 | 0.00 | 0.00 | 99 | 1011.5 |
| 20260905125029 | 16 | 0 | 0.0 | 0.0 | 0.00 | 0.00 | 0.00 | 99 | 1011.7 |
| 20260905124554 | 16 | 0 | 0.0 | 0.0 | 0.00 | 0.00 | 0.00 | 99 | 1011.7 |
| 20260905124033 | 16 | 0 | 0.0 | 0.0 | 0.00 | 0.00 | 0.00 | 99 | 1011.7 |
| 20260905123530 | 16 | 0 | 0.0 | 0.0 | 0.00 | 0.00 | 0.00 | 99 | 1011.6 |
| 20260905123046 | 15 | 0 | 0.0 | 0.0 | 0.00 | 0.00 | 0.00 | 99 | 1011.6 |
| 20260905122529 | 15 | 0 | 0.0 | 0.0 | 0.00 | 0.00 | 0.00 | 99 | 1011.6 |
| 20260905122028 | 15 | 0 | 0.0 | 0.0 | 0.00 | 0.00 | 0.00 | 99 | 1011.5 |
| 20260905121556 | 15 | 0 | 0.0 | 0.0 | 0.00 | 0.00 | 0.00 | 99 | 1011.4 |
| 20260905121028 | 15 | 0 | 0.0 | 0.0 | 0.00 | 0.00 | 0.00 | 99 | 1011.3 |
| 20260905120530 | 15 | 0 | 0.0 | 0.0 | 0.00 | 0.00 | 0.00 | 99 | 1011.3 |
| 20260905120110 | 15 | 0 | 0.0 | 0.0 | 0.00 | 0.00 | 0.00 | 99 | 1011.3 |
| 20260905115528 | 14 | 0 | 0.0 | 0.0 | 0.00 | 0.00 | 0.00 | 99 | 1011.2 |
| 20260905115029 | 14 | 0 | 0.0 | 0.0 | 0.00 | 0.00 | 0.00 | 99 | 1011.2 |
| 20260905114551 | 13 | 0 | 0.0 | 0.0 | 0.00 | 0.00 | 0.00 | 99 | 1011.1 |
| 20260905114029 | 13 | 0 | 0.0 | 0.0 | 0.00 | 0.00 | 0.00 | 99 | 1011.1 |
| 20260905113528 | 13 | 0 | 0.0 | 0.0 | 0.00 | 0.00 | 0.00 | 99 | 1010.9 |
| 20260905113048 | 13 | 0 | 0.0 | 0.0 | 0.00 | 0.00 | 0.00 | 99 | 1010.9 |
| 20260905112529 | 13 | 0 | 0.0 | 0.0 | 0.00 | 0.00 | 0.00 | 99 | 1011.0 |
| 20260905112028 | 13 | 0 | 0.0 | 0.0 | 0.00 | 0.00 | 0.00 | 99 | 1010.9 |
| 20260905111609 | 13 | 0 | 0.0 | 0.0 | 0.00 | 0.00 | 0.00 | 99 | 1010.9 |
| 20260905111029 | 13 | 0 | 0.0 | 0.0 | 0.00 | 0.00 | 0.00 | 98 | 1010.8 |
| 20260905110531 | 12 | 0 | 0.0 | 0.0 | 0.00 | 0.00 | 0.00 | 98 | 1010.6 |
| 20260905110057 | 12 | 0 | 0.0 | 0.0 | 0.00 | 0.00 | 0.00 | 98 | 1010.7 |
| 20260905105529 | 12 | 0 | 0.0 | 0.0 | 0.00 | 0.00 | 0.00 | 98 | 1010.6 |
| 20260905105030 | 12 | 0 | 0.0 | 0.0 | 0.00 | 0.00 | 0.00 | 98 | 1010.4 |
| 20260905104548 | 12 | 0 | 0.0 | 0.0 | 0.00 | 0.00 | 0.00 | 98 | 1010.5 |
| 20260905104029 | 13 | 0 | 0.0 | 0.0 | 0.00 | 0.00 | 0.00 | 98 | 1010.4 |
| 20260905103529 | 13 | 0 | 0.0 | 0.0 | 0.00 | 0.00 | 0.00 | 98 | 1010.4 |
| 20260905103053 | 13 | 0 | 0.0 | 0.0 | 0.00 | 0.00 | 0.00 | 98 | 1010.3 |
| 20260905102528 | 13 | 0 | 0.0 | 0.0 | 0.00 | 0.00 | 0.00 | 98 | 1010.3 |
| 20260905102027 | 13 | 0 | 0.0 | 0.0 | 0.00 | 0.00 | 0.00 | 98 | 1010.3 |
| 20260905101548 | 13 | 0 | 0.0 | 0.0 | 0.00 | 0.00 | 0.00 | 98 | 1010.3 |
| 20260905101029 | 13 | 0 | 0.0 | 0.0 | 0.00 | 0.00 | 0.00 | 98 | 1010.2 |
| 20260905100529 | 13 | 0 | 0.0 | 0.0 | 0.00 | 0.00 | 0.00 | 98 | 1010.3 |
| 20260905100055 | 12 | 0 | 0.0 | 0.0 | 0.00 | 0.00 | 0.00 | 98 | 1010.3 |